Regional Weather Roundup
Issued by NWS

Home | Current Version | Previous Version | Text Only | Print | Product List | Glossary Off
Versions: 1 2 3 4 5 6 7 8 9 10 11 12 13 14 15 16 17 18 19 20 21 22 23 24 25 26 27 28 29 30 31 32 33 34 35 36 37 38 39 40 41 42 43 44 45 46 47 48 49 50

000
ASUS44 KOUN 271910
RWROK

WEATHER ROUNDUP FOR OKLAHOMA
NATIONAL WEATHER SERVICE NORMAN OK
200 PM CDT WED MAY 27 2015

NOTE: "FAIR" INDICATES FEW OR NO CLOUDS BELOW 12,000 FEET WITH NO
      SIGNIFICANT WEATHER AND/OR OBSTRUCTIONS TO VISIBILITY.

OKZ001>007-009>012-014-015-017-272000-
NORTHWEST OKLAHOMA AND THE PANHANDLE

CITY           SKY/WX    TMP DP  RH WIND       PRES   REMARKS
GAGE           SUNNY     82  63  52 SE13G20   30.04F
GUYMON         MOSUNNY   84  55  36 S13G18    30.02F
ENID/WOODRING  MOSUNNY   86  64  48 SE12G22   30.05F
$$

OKZ016-021>023-033>039-044-045-272000-
SOUTHWEST OKLAHOMA

CITY           SKY/WX    TMP DP  RH WIND       PRES   REMARKS
LAWTON/REGL    PTSUNNY   81  67  62 S9        30.06F
LAWTON/FT SILL PTSUNNY   80  69  67 S8        30.05F
FREDERICK      CLOUDY    80  70  71 S8        30.03F
CLINTON        MOSUNNY   84  68  58 S13       30.07F
HOBART         PTSUNNY   82  69  64 S9G20     30.05F
ALTUS AFB      MOSUNNY   82  73  74 S13       30.04S
$$

OKZ018>020-024>031-272000-
CENTRAL OKLAHOMA

CITY           SKY/WX    TMP DP  RH WIND       PRES   REMARKS
OKLAHOMA CITY  PTSUNNY   77  66  68 S12       30.07F
OKC/WILEY POST MOSUNNY   76  67  73 S6        30.07F
OKC/TINKER AFB MOSUNNY   74  65  73 E3        30.07F
STILLWATER     MOSUNNY   83  64  52 S12G20    30.06F
GUTHRIE        PTSUNNY   83  67  58 S14       30.06S
$$

OKZ008-013-054>072-272000-
NORTHEAST OKLAHOMA

CITY           SKY/WX    TMP DP  RH WIND       PRES   REMARKS
TULSA          PTSUNNY   85  68  56 E10       30.06F
TULSA/JONES    SUNNY     84  66  54 VRB6      30.06F
PONCA CITY     MOSUNNY   81  67  62 SE9       30.06F
BARTLESVILLE   PTSUNNY   80  67  64 CALM      30.09F
MUSKOGEE       MOSUNNY   83  67  58 SW8       30.09F
$$

OKZ032-040>043-046>053-073>077-272000-
SOUTH CENTRAL/SOUTHEAST OKLAHOMA

CITY           SKY/WX    TMP DP  RH WIND       PRES   REMARKS
ARDMORE/DWNTWN CLOUDY    79  63  57 SE7       30.08S
MCALESTER      CLOUDY    75  69  81 CALM      30.09F
$$




USA.gov is the U.S. government's official web portal to all federal, state and local government web resources and services.